1495598400.66,51730,15.06,73760.8,1.23,-5.51,-1.71,0,*7B
1495598401.9,51731,15.06,73766.5,1.25,-4.89,-1.33,0,*7E
1495598403.12,51732,15.06,73768.5,1.23,-4.33,-1.09,0,*73
1495598404.37,51733,15.06,73762.5,1.25,-3.71,-0.85,0,*40
1495598405.59,51734,15.06,73764.5,1.25,-3.35,-0.81,0,*43
1495598406.8,51735,15.06,73762.5,1.25,-2.99,-0.81,0,*45
1495598407.98,51736,15.06,73764.5,1.27,-2.83,-0.69,0,*49
1495598409.2,51737,15.06,73766.5,1.27,-2.63,-0.77,0,*49
1495598410.41,51738,15.06,73766.5,1.25,-2.31,-0.69,0,*4C
1495598411.63,51739,15.06,73764.8,1.23,-1.99,-0.57,0,*47
1495598412.85,51740,15.06,73766.8,1.25,-1.71,-0.49,0,*46
1495598414.07,51741,15.06,73768.5,1.25,-1.33,-0.33,0,*4C
1495598415.3,51742,15.06,73774.0,1.25,-1.05,-0.29,0,*41
1495598416.54,51743,15.06,73770.5,1.25,-0.81,-0.23,0,*77
1495598417.75,51744,15.06,73768.0,1.23,-0.73,-0.23,0,*7B
1495598418.95,51745,15.06,73764.3,1.25,-0.61,-0.19,0,*76
1495598420.16,51746,15.06,73762.8,1.25,-0.57,-0.11,0,*78
1495598421.35,51747,15.06,73766.8,1.27,-0.57,-0.15,0,*7F
1495598422.58,51748,15.06,73766.5,1.25,-0.61,-0.23,0,*72
1495598423.8,51749,15.06,73760.0,1.25,-0.57,-0.23,0,*76
1495598425.01,51750,15.06,73762.5,1.25,-0.73,-0.45,0,*78
1495598426.26,51751,15.06,73764.0,1.25,-1.05,-0.69,0,*47
1495598427.49,51752,15.06,73764.3,1.25,-0.97,-0.73,0,*75
1495598428.73,51753,15.06,73766.5,1.25,-1.05,-0.81,0,*43
1495598429.97,51754,15.06,73764.0,1.25,-1.21,-0.93,0,*41
1495598431.21,51755,15.06,73764.0,1.25,-1.33,-1.05,0,*7D
1495598432.4,51756,15.06,73766.5,1.27,-1.63,-1.33,0,*7C
1495598433.59,51757,15.06,73766.0,1.27,-1.55,-1.21,0,*7B
1495598434.78,51758,15.06,73764.8,1.27,-1.67,-1.55,0,*76
1495598435.99,51759,15.06,73766.8,1.27,-1.95,-1.79,0,*74
1495598437.18,51760,15.06,73764.8,1.27,-2.15,-1.79,0,*75
1495598438.37,51761,15.06,73760.3,1.27,-2.19,-1.79,0,*78
1495598439.59,51762,15.06,73758.8,1.27,-2.31,-2.03,0,*7F
1495598440.81,51763,15.06,73764.8,1.27,-2.67,-2.15,0,*7A
1495598442.0,51764,15.06,73764.3,1.27,-3.07,-2.19,0,*76
1495598443.22,51765,15.06,73766.0,1.27,-3.19,-2.07,0,*77
1495598444.46,51766,15.06,73766.3,1.25,-3.11,-2.07,0,*7E
1495598445.71,51767,15.0,73762.0,1.25,-2.75,-1.71,0,*7E
1495598446.94,51768,15.06,73768.0,1.25,-2.59,-1.59,0,*75
1495598448.13,51769,15.06,73770.3,1.27,-2.31,-1.51,0,*70
1495598449.37,51770,15.06,73772.8,1.27,-2.71,-1.95,0,*74
1495598450.61,51771,15.06,73772.3,1.25,-3.07,-1.99,0,*7B
1495598451.85,51772,15.06,73770.0,1.25,-2.87,-1.83,0,*7A
1495598453.07,51773,15.06,73764.0,1.25,-2.87,-1.67,0,*71
1495598454.31,51774,15.06,73764.3,1.25,-2.99,-1.47,0,*7B
1495598455.57,51775,15.06,73764.8,1.25,-2.71,-1.13,0,*7D
1495598456.81,51776,15.06,73766.5,1.25,-2.43,-1.13,0,*7F
1495598458.04,51777,15.06,73764.3,1.25,-2.23,-1.09,0,*73
1495598459.3,51778,15.06,73762.3,1.25,-1.83,-0.97,0,*43
1495598460.53,51779,15.06,73762.3,1.25,-1.71,-0.97,0,*4F
1495598461.75,51780,15.06,73766.3,1.23,-1.55,-1.05,0,*73
1495598463.02,51781,15.0,73756.0,1.25,-1.35,-1.05,0,*72
1495598464.27,51782,15.06,73756.5,1.25,-1.43,-0.97,0,*4A
1495598465.51,51783,15.06,73756.5,1.25,-1.35,-0.81,0,*4D
1495598466.74,51784,15.06,73760.5,1.25,-1.35,-0.81,0,*4A
1495598468.0,51785,15.06,73764.8,1.25,-1.35,-0.93,0,*48
1495598469.21,51786,15.06,73766.3,1.27,-1.67,-1.05,0,*70
1495598470.42,51787,15.06,73764.5,1.29,-2.27,-1.51,0,*79
1495598471.64,51788,15.06,73766.8,1.29,-2.83,-1.63,0,*79
1495598472.83,51789,15.06,73764.8,1.27,-3.15,-1.55,0,*7D
1495598474.05,51790,15.06,73768.5,1.27,-3.67,-1.63,0,*75
1495598475.26,51791,15.06,73764.5,1.27,-3.67,-1.55,0,*71
1495598476.5,51792,15.06,73770.5,1.27,-3.55,-1.43,0,*74
1495598477.73,51793,15.06,73764.3,1.27,-3.31,-1.39,0,*7A
1495598478.92,51794,15.06,73764.3,1.27,-3.15,-1.29,0,*7A
1495598480.11,51795,15.06,73766.3,1.27,-3.03,-1.33,0,*77
1495598481.3,51796,15.06,73764.8,1.27,-2.91,-1.29,0,*75
1495598482.48,51797,15.06,73766.5,1.27,-2.83,-1.17,0,*7A
1495598483.7,51798,15.06,73766.3,1.27,-2.79,-1.01,0,*77
1495598484.91,51799,15.06,73768.0,1.27,-2.79,-1.01,0,*76
1495598486.12,51800,15.06,73764.8,1.27,-2.83,-0.89,0,*4D
1495598487.33,51801,15.06,73764.8,1.27,-2.63,-0.69,0,*4C
1495598488.54,51802,15.06,73766.5,1.29,-2.39,-0.53,0,*47
1495598489.75,51803,15.0,73766.3,1.27,-2.03,-0.53,0,*41
1495598490.93,51804,15.06,73770.8,1.27,-1.79,-0.53,0,*48
1495598492.12,51805,15.06,73764.5,1.27,-1.67,-0.57,0,*42
1495598493.34,51806,15.06,73764.3,1.27,-1.39,-0.45,0,*49
1495598494.53,51807,15.06,73768.5,1.27,-1.21,-0.53,0,*46
1495598495.72,51808,15.06,73770.0,1.27,-1.21,-0.57,0,*4D
1495598496.91,51809,15.06,73770.0,1.27,-1.29,-0.53,0,*40
1495598498.1,51810,15.06,73770.0,1.27,-1.21,-0.57,0,*44
1495598499.31,51811,15.06,73768.3,1.29,-1.17,-0.53,0,*4A
1495598500.5,51812,15.06,73766.3,1.27,-1.29,-0.69,0,*43
1495598501.72,51813,15.06,73768.0,1.27,-1.39,-0.77,0,*4C
1495598502.96,51814,15.06,73768.5,1.27,-1.39,-0.93,0,*41
1495598504.17,51815,15.06,73768.0,1.27,-1.55,-1.01,0,*70
1495598505.41,51816,15.06,73770.0,1.29,-1.63,-1.09,0,*70
1495598506.62,51817,15.06,73768.0,1.29,-1.67,-1.33,0,*7C
1495598507.86,51818,15.06,73770.0,1.29,-1.75,-1.43,0,*77
1495598509.1,51819,15.0,73764.8,1.29,-1.87,-1.63,0,*79
1495598510.31,51820,15.06,73768.8,1.29,-2.15,-1.79,0,*70
1495598511.54,51821,15.06,73768.0,1.29,-2.39,-1.95,0,*7D
1495598512.81,51822,15.06,73768.8,1.29,-2.67,-1.91,0,*71
1495598514.05,51823,15.06,73768.5,1.29,-2.95,-2.03,0,*75
1495598515.27,51824,15.06,73764.0,1.27,-3.19,-2.03,0,*79
1495598516.54,51825,15.0,73766.3,1.29,-3.47,-2.03,0,*7D
1495598517.8,51826,15.06,73768.8,1.29,-3.67,-1.95,0,*70
1495598519.04,51827,15.0,73766.8,1.29,-3.67,-1.55,0,*7D
1495598520.26,51828,15.0,73766.0,1.29,-3.15,-1.33,0,*77
1495598521.48,51829,15.06,73768.5,1.29,-2.95,-1.17,0,*79
1495598522.72,51830,15.0,73768.0,1.29,-2.95,-1.01,0,*76
1495598523.96,51831,15.06,73772.5,1.29,-2.71,-0.77,0,*4D
1495598525.19,51832,15.06,73772.5,1.29,-2.03,-0.65,0,*48
1495598526.43,51833,15.06,73776.3,1.29,-2.07,-0.81,0,*47
1495598527.64,51834,15.06,73774.8,1.31,-2.27,-0.89,0,*43
1495598528.87,51835,15.06,73776.8,1.29,-2.31,-0.89,0,*4C
1495598530.05,51836,15.06,73774.8,1.31,-2.23,-0.61,0,*43
1495598531.24,51837,15.06,73772.0,1.31,-1.63,-0.41,0,*47
1495598532.42,51838,15.06,73772.3,1.31,-1.51,-0.29,0,*47
1495598533.66,51839,15.06,73772.5,1.31,-1.47,-0.23,0,*4B
1495598534.92,51840,15.06,73770.0,1.33,-1.47,-0.27,0,*43
1495598536.12,51841,15.0,73770.3,1.31,-1.71,-0.37,0,*44
1495598537.32,51842,15.0,73768.8,1.31,-1.51,-0.23,0,*40
1495598538.52,51843,15.06,73770.8,1.31,-1.29,-0.15,0,*4B
1495598539.73,51844,15.06,73776.8,1.31,-1.17,-0.23,0,*44
1495598540.96,51845,15.06,73772.3,1.31,-1.05,-0.15,0,*43
1495598542.16,51846,15.06,73772.0,1.31,-0.89,-0.03,0,*42
1495598543.34,51847,15.06,73768.3,1.31,-0.73,-0.03,0,*46
1495598544.52,51848,15.06,73768.8,1.31,-0.61,-0.03,0,*4A
1495598545.7,51849,15.06,73766.0,1.31,-0.61,-0.11,0,*78
1495598546.9,51850,15.06,73762.0,1.31,-0.61,-0.23,0,*71
1495598548.1,51851,15.06,73764.8,1.31,-0.61,-0.27,0,*74
1495598549.29,51852,15.0,73764.8,1.31,-0.41,-0.15,0,*74
1495598550.5,51853,15.06,73760.0,1.29,-0.41,-0.19,0,*70
1495598551.71,51854,15.0,73766.8,1.29,-0.19,-0.07,0,*45
1495598552.91,51855,15.0,73766.3,1.29,-0.15,-0.07,0,*48
1495598554.1,51856,15.0,73762.8,1.29,-0.07,0.05,0,*57
1495598555.31,51857,15.0,73766.3,1.29,-0.15,-0.03,0,*4E
1495598556.51,51858,15.06,73768.0,1.29,-0.15,-0.03,0,*41
1495598557.71,51859,15.0,73770.3,1.29,-0.15,-0.07,0,*44
1495598558.89,51860,15.06,73770.8,1.27,-0.15,-0.03,0,*44
1495598560.09,51861,15.0,73770.3,1.29,-0.15,-0.03,0,*4B
1495598561.27,51862,15.0,73766.3,1.27,-0.15,-0.07,0,*42
1495598562.45,51863,15.06,73772.8,1.27,-0.15,-0.15,0,*70
1495598563.66,51864,15.06,73770.8,1.29,-0.15,-0.07,0,*4A
1495598564.86,51865,15.0,73770.3,1.29,-0.15,-0.07,0,*4B
1495598566.05,51866,15.0,73768.0,1.27,-0.19,-0.15,0,*79
1495598567.25,51867,15.0,73768.0,1.27,-0.29,-0.27,0,*7A
1495598568.45,51868,15.06,73774.5,1.29,-0.29,-0.19,0,*76
1495598569.63,51869,15.06,73774.0,1.27,-0.33,-0.19,0,*72
1495598570.84,51870,15.0,73770.3,1.27,-0.33,-0.27,0,*77
1495598572.02,51871,15.0,73768.3,1.27,-0.29,-0.19,0,*70
1495598573.2,51872,15.0,73768.5,1.27,-0.29,-0.19,0,*73
1495598574.38,51873,15.0,73768.8,1.27,-0.19,-0.07,0,*4E
1495598575.61,51874,15.0,73764.8,1.29,-0.27,-0.03,0,*4E
1495598576.81,51875,15.0,73766.3,1.29,-0.29,-0.07,0,*45
1495598578.03,51876,15.0,73768.3,1.29,-0.27,-0.03,0,*4C
1495598579.24,51877,15.06,73772.8,1.29,-0.19,-0.07,0,*44
1495598580.46,51878,15.0,73768.5,1.29,-0.27,-0.07,0,*46
1495598581.67,51879,15.06,73766.3,1.27,-0.27,-0.07,0,*49
1495598582.89,51880,15.06,73768.5,1.29,-0.27,-0.07,0,*41
1495598584.12,51881,15.06,73770.8,1.29,-0.29,-0.27,0,*7C
1495598585.3,51882,15.0,73766.3,1.27,-0.29,-0.19,0,*7C
1495598586.5,51883,15.0,73766.3,1.29,-0.15,-0.07,0,*43
1495598587.71,51884,15.0,73766.8,1.29,-0.19,-0.07,0,*48
1495598588.89,51885,15.06,73764.5,1.27,-0.19,-0.07,0,*47
1495598590.08,51886,15.0,73762.8,1.27,-0.19,-0.15,0,*77
1495598591.29,51887,15.0,73768.5,1.29,-0.19,-0.15,0,*78
1495598592.52,51888,15.0,73766.3,1.29,-0.27,-0.29,0,*75
1495598593.73,51889,15.0,73766.3,1.29,-0.19,-0.33,0,*72
1495598594.94,51890,15.0,73770.0,1.29,-0.45,-0.45,0,*72
1495598596.14,51891,15.0,73770.3,1.29,-0.57,-0.53,0,*77
1495598597.35,51892,15.06,73768.0,1.29,-0.57,-0.57,0,*70
1495598598.55,51893,15.0,73766.5,1.29,-0.69,-0.57,0,*7C
1495598599.74,51894,15.0,73768.0,1.27,-0.69,-0.57,0,*75
1495598600.95,51895,15.0,73766.0,1.29,-0.81,-0.69,0,*71
1495598602.15,51896,15.0,73768.3,1.27,-0.93,-0.81,0,*79
1495598603.36,51897,15.0,73768.0,1.29,-0.81,-0.65,0,*7F
1495598604.57,51898,15.0,73768.3,1.29,-0.81,-0.77,0,*73
1495598605.75,51899,15.0,73768.0,1.27,-0.77,-0.65,0,*76
1495598606.96,51900,15.06,73768.8,1.29,-0.81,-0.69,0,*7C
1495598608.16,51901,15.0,73764.8,1.29,-0.77,-0.69,0,*74
1495598609.41,51902,15.0,73764.3,1.29,-0.93,-0.93,0,*78
1495598610.61,51903,15.0,73764.0,1.27,-1.17,-1.21,0,*72
1495598611.81,51904,15.0,73764.0,1.27,-1.17,-1.29,0,*7D
1495598613.05,51905,15.0,73764.5,1.29,-1.01,-1.17,0,*78
1495598614.29,51906,15.06,73766.3,1.27,-1.09,-1.39,0,*71
1495598615.51,51907,15.0,73760.3,1.27,-1.29,-1.43,0,*7F
1495598616.71,51908,15.0,73758.0,1.27,-1.29,-1.55,0,*77
1495598617.93,51909,15.0,73764.5,1.27,-1.21,-1.43,0,*79
1495598619.15,51910,15.0,73762.8,1.27,-1.21,-1.43,0,*71
1495598620.36,51911,15.0,73758.3,1.25,-1.33,-1.59,0,*7A
1495598621.56,51912,15.06,73760.0,1.27,-1.21,-1.63,0,*71
1495598622.76,51913,15.06,73762.0,1.27,-1.29,-1.67,0,*7C
1495598623.95,51914,15.0,73756.8,1.27,-1.29,-1.75,0,*78
1495598625.18,51915,15.0,73756.8,1.27,-1.33,-2.03,0,*70
1495598626.4,51916,15.0,73760.3,1.27,-1.43,-2.15,0,*73
1495598627.59,51917,15.06,73764.5,1.27,-1.29,-2.27,0,*7F
1495598628.8,51918,15.0,73764.3,1.27,-1.51,-2.55,0,*7A
1495598630.02,51919,15.0,73762.5,1.27,-1.63,-2.71,0,*7C
1495598631.21,51920,15.0,73760.5,1.27,-1.63,-3.07,0,*76
1495598632.42,51921,15.06,73766.8,1.25,-1.71,-3.31,0,*73
1495598633.65,51922,15.06,73764.8,1.25,-1.79,-3.71,0,*7C
1495598634.89,51923,15.0,73770.8,1.25,-1.91,-3.95,0,*71
1495598636.13,51924,15.0,73770.8,1.25,-1.83,-4.21,0,*7D
1495598637.33,51925,15.0,73770.8,1.27,-1.79,-4.57,0,*7A
1495598638.57,51926,15.0,73776.5,1.27,-2.07,-4.93,0,*7B
1495598639.81,51927,15.0,73778.3,1.29,-2.19,-4.81,0,*78
1495598641.06,51928,15.0,73774.5,1.27,-2.07,-4.69,0,*70
1495598642.27,51929,15.0,73770.3,1.27,-2.27,-5.07,0,*7A
1495598643.49,51930,15.0,73766.3,1.27,-2.27,-5.15,0,*71
1495598644.74,51931,15.0,73758.3,1.25,-2.23,-5.03,0,*71
1495598646.01,51932,15.0,73764.5,1.25,-2.47,-5.31,0,*71
1495598647.25,51933,15.0,73760.3,1.27,-2.55,-5.73,0,*77
1495598648.46,51934,15.0,73758.0,1.27,-2.91,-6.27,0,*7A
1495598649.65,51935,15.0,73760.8,1.27,-3.03,-6.51,0,*70
1495598650.87,51936,15.0,73758.5,1.25,-3.11,-6.59,0,*7A
1495598652.08,51937,15.0,73758.3,1.25,-3.11,-6.85,0,*7A
1495598653.28,51938,15.06,73756.8,1.27,-3.15,-7.19,0,*77
1495598654.5,51939,15.0,73758.8,1.27,-3.59,-8.37,0,*7D
1495598655.72,51940,15.06,73760.3,1.25,-4.33,-9.27,0,*7A
1495598656.96,51941,15.06,73764.8,1.25,-4.73,-9.67,0,*7B
1495598658.18,51942,15.0,73762.3,1.23,-5.03,-9.67,0,*78
1495598659.44,51943,15.0,73762.8,1.25,-5.19,-9.57,0,*77
1495598660.71,51944,15.0,73762.5,1.25,-5.31,-9.45,0,*79
1495598661.95,51945,15.0,73762.3,1.25,-5.19,-8.89,0,*73
1495598663.17,51946,15.0,73760.3,1.23,-5.03,-8.75,0,*7E
1495598664.4,51947,15.06,73766.3,1.25,-5.03,-8.55,0,*7B
1495598665.61,51948,15.06,73764.8,1.23,-4.85,-8.41,0,*78
1495598666.85,51949,15.06,73764.5,1.25,-4.85,-8.89,0,*7B
1495598668.11,51950,15.0,73764.3,1.25,-4.85,-9.41,0,*76
1495598669.35,51951,15.0,73762.5,1.23,-5.19,-9.37,0,*74
1495598670.57,51952,15.06,73762.8,1.23,-5.27,-8.85,0,*72
1495598671.81,51953,15.06,73762.8,1.25,-4.89,-8.41,0,*78
1495598673.05,51954,15.0,73758.0,1.25,-4.89,-8.85,0,*77
1495598674.3,51955,15.0,73756.8,1.23,-5.19,-9.37,0,*70
1495598675.51,51956,15.06,73762.3,1.25,-5.39,-9.27,0,*76
1495598676.73,51957,15.0,73758.8,1.23,-5.31,-8.75,0,*7F
1495598677.92,51958,15.0,73760.8,1.23,-5.43,-8.71,0,*71
1495598679.14,51959,15.0,73762.8,1.23,-5.43,-8.07,0,*71
1495598680.39,51960,15.0,73756.8,1.23,-5.03,-7.35,0,*71
1495598681.61,51961,15.0,73760.3,1.23,-4.65,-7.61,0,*70
1495598682.82,51962,15.0,73758.0,1.23,-4.61,-7.95,0,*7C
1495598684.01,51963,15.06,73762.0,1.23,-4.61,-8.29,0,*75
1495598685.23,51964,15.06,73762.5,1.23,-4.61,-7.95,0,*7A
1495598686.47,51965,15.06,73764.3,1.23,-4.73,-7.65,0,*77
1495598687.68,51966,15.0,73760.3,1.23,-4.73,-6.73,0,*72
1495598688.91,51967,15.0,73762.3,1.23,-4.65,-5.19,0,*7B
1495598690.16,51968,15.06,73764.5,1.23,-4.01,-3.59,0,*74
1495598691.35,51969,15.06,73762.8,1.23,-3.19,-3.07,0,*70
1495598692.55,51970,15.06,73762.8,1.23,-2.31,-2.95,0,*79
1495598693.74,51971,15.06,73766.8,1.23,-2.23,-3.31,0,*74
1495598694.95,51972,15.06,73766.8,1.23,-2.31,-3.47,0,*75
1495598696.17,51973,15.06,73766.0,1.23,-2.23,-3.59,0,*78
1495598697.38,51974,15.06,73764.5,1.23,-2.35,-3.59,0,*78
1495598698.6,51975,15.0,73764.3,1.23,-2.47,-3.83,0,*7B
1495598699.82,51976,15.0,73766.0,1.23,-2.35,-4.01,0,*70
1495598701.04,51977,15.0,73758.8,1.25,-2.31,-4.21,0,*71
1495598702.24,51978,15.0,73764.8,1.23,-2.35,-4.21,0,*7C
1495598703.46,51979,15.06,73772.0,1.25,-2.35,-4.25,0,*7F
1495598704.65,51980,15.06,73768.8,1.23,-2.43,-4.65,0,*7A
1495598705.9,51981,15.0,73770.8,1.23,-2.55,-5.03,0,*7D
1495598707.1,51982,15.06,73762.3,1.23,-2.95,-5.43,0,*76
1495598708.33,51983,15.06,73762.5,1.23,-3.35,-4.89,0,*7B
1495598709.53,51984,15.06,73766.3,1.23,-3.19,-4.25,0,*74
1495598710.73,51985,15.06,73766.5,1.23,-2.99,-4.21,0,*78
1495598711.92,51986,15.06,73768.8,1.23,-2.99,-4.09,0,*71
1495598713.11,51987,15.0,73766.0,1.23,-2.83,-4.13,0,*70
1495598714.33,51988,15.0,73768.5,1.23,-2.55,-3.87,0,*7E
1495598715.56,51989,15.0,73768.8,1.25,-2.59,-4.09,0,*74
1495598716.79,51990,15.0,73768.5,1.23,-2.71,-4.25,0,*7E
1495598718.01,51991,15.0,73768.0,1.23,-2.71,-4.09,0,*71
1495598719.25,51992,15.0,73764.0,1.23,-2.59,-3.59,0,*7A
1495598720.44,51993,15.06,73766.5,1.23,-2.43,-3.07,0,*7B
1495598721.68,51994,15.0,73762.0,1.25,-2.43,-2.55,0,*7C
1495598722.87,51995,15.0,73762.3,1.23,-2.31,-2.19,0,*76
1495598724.1,51996,15.06,73764.5,1.23,-1.99,-1.71,0,*79
1495598725.34,51997,15.0,73766.0,1.21,-1.75,-1.47,0,*7D
1495598726.55,51998,15.0,73766.5,1.23,-1.59,-1.13,0,*7F
1495598727.77,51999,15.0,73764.5,1.23,-1.33,-0.97,0,*4F
1495598729.0,52000,15.06,73768.0,1.25,-1.21,-0.97,0,*40
1495598730.25,52001,15.0,73760.8,1.23,-1.05,-1.05,0,*7B
1495598731.51,52002,15.0,73762.5,1.25,-0.93,-1.05,0,*40
1495598732.76,52003,15.06,73764.3,1.25,-0.93,-1.13,0,*46
1495598734.0,52004,15.0,73762.5,1.25,-0.73,-1.09,0,*44
1495598735.21,52005,15.0,73764.5,1.23,-0.69,-1.09,0,*48
1495598736.43,52006,15.0,73762.5,1.25,-0.61,-1.09,0,*45
1495598737.62,52007,15.0,73768.8,1.23,-0.61,-1.21,0,*48
1495598738.84,52008,15.0,73770.8,1.23,-0.85,-1.67,0,*4F
1495598740.1,52009,15.0,73770.5,1.25,-0.85,-1.95,0,*45
1495598741.33,52010,15.0,73768.5,1.25,-0.97,-2.43,0,*46
1495598742.55,52011,15.0,73768.3,1.25,-1.21,-2.83,0,*77
1495598743.76,52012,15.0,73768.0,1.23,-1.43,-3.23,0,*7D
1495598744.95,52013,15.06,73774.5,1.23,-1.59,-3.83,0,*7D
1495598746.14,52014,15.0,73772.5,1.23,-1.67,-4.65,0,*78
1495598747.38,52015,15.06,73772.8,1.25,-1.67,-5.89,0,*7C
1495598748.6,52016,15.0,73764.3,1.25,-2.19,-6.47,0,*74
1495598749.85,52017,15.0,73768.8,1.23,-2.67,-7.61,0,*7F
1495598751.06,52018,15.0,73772.8,1.23,-3.11,-7.91,0,*7F
1495598752.29,52019,15.0,73770.5,1.23,-2.99,-7.27,0,*72
1495598753.49,52020,15.0,73766.0,1.23,-2.99,-7.11,0,*7D
1495598754.71,52021,15.0,73764.3,1.23,-2.99,-7.35,0,*7A
1495598755.92,52022,15.0,73768.5,1.23,-3.07,-7.95,0,*75
1495598757.14,52023,15.0,73764.3,1.23,-3.51,-8.55,0,*74
1495598758.35,52024,15.0,73770.5,1.21,-3.79,-8.33,0,*7B
1495598759.58,52025,15.0,73774.3,1.21,-3.79,-7.83,0,*7E
1495598760.81,52026,15.0,73770.0,1.23,-3.75,-6.97,0,*77
1495598762.03,52027,15.0,73770.5,1.23,-3.59,-6.09,0,*7F
1495598763.23,52028,15.0,73766.8,1.23,-3.35,-6.01,0,*72
1495598764.45,52029,15.0,73760.0,1.23,-2.95,-5.65,0,*79
1495598765.66,52030,15.0,73758.5,1.21,-2.91,-5.97,0,*7A
1495598766.87,52031,15.0,73756.0,1.21,-2.79,-6.13,0,*72
1495598768.12,52032,15.0,73756.5,1.21,-2.47,-6.51,0,*7A
1495598769.39,52033,15.0,73760.8,1.21,-2.47,-7.39,0,*74
1495598770.65,52034,15.0,73762.8,1.21,-2.63,-7.95,0,*73
1495598771.86,52035,15.0,73760.5,1.21,-2.99,-8.33,0,*74
1495598773.07,52036,15.0,73762.0,1.21,-3.03,-8.67,0,*74
1495598774.31,52037,15.0,73768.3,1.21,-3.23,-9.49,0,*7A
1495598775.55,52038,15.0,73764.8,1.21,-3.55,-10.93,0,*4B
1495598776.83,52039,15.0,73770.0,1.21,-4.01,-11.67,0,*46
1495598778.08,52040,15.0,73770.8,1.21,-4.29,-11.51,0,*47
1495598779.31,52041,15.06,73768.5,1.23,-4.21,-10.75,0,*4B
1495598780.53,52042,15.0,73766.8,1.23,-4.09,-9.83,0,*73
1495598781.79,52043,15.0,73768.3,1.23,-4.01,-9.37,0,*75
1495598782.98,52044,15.0,73766.3,1.23,-3.87,-8.75,0,*7C
1495598784.19,52045,15.0,73764.5,1.21,-3.75,-8.67,0,*71
1495598785.43,52046,15.0,73766.5,1.21,-3.63,-8.75,0,*76
1495598786.67,52047,15.0,73770.3,1.21,-3.63,-9.19,0,*7C
1495598787.93,52048,15.0,73766.3,1.21,-3.55,-10.15,0,*42
1495598789.16,52049,15.0,73762.5,1.21,-3.79,-11.41,0,*4D
1495598790.41,52050,15.0,73764.0,1.17,-4.21,-13.79,0,*43
1495598791.62,52051,15.0,73764.5,1.21,-4.53,-15.63,0,*4F
1495598792.89,52052,15.0,73764.0,1.21,-5.15,-16.51,0,*4D
1495598794.14,52053,15.0,73766.8,1.17,-5.39,-17.21,0,*41
1495598795.39,52054,15.0,73764.8,1.21,-5.69,-17.73,0,*41
1495598796.66,52055,15.0,73768.0,1.21,-5.69,-17.59,0,*48
1495598797.93,52056,15.0,73766.5,1.17,-5.77,-17.93,0,*47
1495598799.19,52057,15.0,73766.3,1.17,-5.89,-18.11,0,*42
1495598800.44,52058,15.0,73770.8,1.17,-5.89,-18.07,0,*4A
1495598801.69,52059,15.0,73770.5,1.21,-5.85,-18.21,0,*46
1495598802.94,52060,15.0,73766.5,1.21,-5.85,-18.21,0,*4C
1495598804.18,52061,15.0,73768.5,1.17,-5.89,-18.25,0,*40
1495598805.42,52062,15.0,73768.5,1.17,-5.89,-18.25,0,*43
1495598806.64,52063,15.0,73768.0,1.17,-6.01,-18.41,0,*43
1495598807.89,52064,15.0,73764.0,1.17,-6.13,-18.55,0,*42
1495598809.13,52065,15.0,73766.3,1.17,-6.13,-18.55,0,*43
1495598810.36,52066,15.0,73766.5,1.17,-6.09,-18.41,0,*4E
1495598811.57,52067,15.0,73764.8,1.17,-6.01,-18.25,0,*45
1495598812.8,52068,15.0,73766.5,1.15,-6.09,-17.93,0,*42
1495598814.02,52069,15.0,73768.8,1.15,-6.09,-17.35,0,*4F
1495598815.24,52070,15.0,73768.8,1.15,-5.97,-16.31,0,*46
1495598816.5,52071,15.0,73766.0,1.15,-5.77,-14.93,0,*43
1495598817.75,52072,15.0,73764.8,1.15,-5.61,-13.37,0,*4E
1495598818.97,52073,15.06,73770.8,1.15,-5.11,-12.25,0,*4A
1495598820.19,52074,15.0,73766.0,1.15,-4.73,-13.07,0,*49
1495598821.45,52075,15.0,73770.0,1.17,-5.19,-15.53,0,*40
1495598822.7,52076,15.0,73768.0,1.17,-5.51,-16.27,0,*4F
1495598823.95,52077,15.0,73766.8,1.15,-5.73,-17.03,0,*4B
1495598825.17,52078,15.0,73764.0,1.15,-6.27,-18.83,0,*41
1495598826.39,52079,15.0,73766.5,1.15,-6.27,-18.65,0,*48
1495598827.6,52080,15.0,73766.5,1.15,-6.55,-19.17,0,*4F
1495598828.82,52081,15.0,73766.0,1.15,-6.55,-19.81,0,*41
1495598830.03,52082,15.0,73770.3,1.15,-6.69,-19.95,0,*48
1495598831.26,52083,15.0,73768.0,1.13,-6.59,-19.95,0,*4C
1495598832.49,52084,15.0,73770.5,1.15,-6.55,-19.81,0,*44
1495598833.72,52085,15.0,73774.0,1.13,-6.59,-19.71,0,*40
1495598834.97,52086,15.0,73770.3,1.15,-6.63,-19.57,0,*48
1495598836.18,52087,15.0,73768.0,1.15,-6.77,-19.13,0,*4C
1495598837.39,52088,15.0,73774.0,1.15,-6.77,-18.69,0,*4F
1495598838.61,52089,15.06,73776.3,1.15,-6.69,-17.93,0,*4B
1495598839.84,52090,15.0,73772.0,1.13,-6.69,-17.83,0,*44
1495598841.06,52091,15.0,73770.3,1.13,-6.55,-18.17,0,*48
1495598842.26,52092,15.0,73768.5,1.15,-6.55,-18.49,0,*46
1495598843.49,52093,15.0,73770.0,1.13,-6.85,-18.79,0,*4F
1495598844.68,52094,15.0,73770.5,1.15,-6.85,-18.79,0,*4E
1495598845.96,52095,15.0,73770.3,1.13,-6.93,-19.23,0,*40
1495598847.21,52096,15.0,73768.5,1.13,-7.01,-19.47,0,*4B
1495598848.46,52097,15.0,73770.0,1.13,-7.15,-19.61,0,*4B
1495598849.67,52098,15.06,73774.0,1.11,-7.23,-19.17,0,*42
1495598850.88,52099,15.0,73770.5,1.11,-7.23,-18.59,0,*48
1495598852.12,52100,15.06,73774.3,1.11,-7.15,-18.31,0,*42
1495598853.32,52101,15.0,73770.3,1.11,-7.11,-18.17,0,*43
1495598854.56,52102,15.0,73770.0,1.09,-7.15,-17.93,0,*4E
1495598855.82,52103,15.06,73772.8,1.11,-6.97,-17.55,0,*47
1495598857.09,52104,15.0,73770.0,1.09,-7.01,-17.11,0,*47
1495598858.3,52105,15.0,73770.8,1.11,-6.73,-16.75,0,*48
1495598859.52,52106,15.0,73770.3,1.11,-6.93,-16.97,0,*49
1495598860.72,52107,15.06,73772.3,1.11,-6.81,-16.93,0,*4F
1495598861.95,52108,15.0,73768.8,1.11,-6.73,-17.03,0,*45
1495598863.16,52109,15.0,73764.0,1.11,-6.81,-17.69,0,*45
1495598864.43,52110,15.06,73768.3,1.09,-7.05,-18.93,0,*43
1495598865.65,52111,15.0,73766.5,1.11,-7.15,-19.31,0,*43
1495598866.93,52112,15.0,73762.8,1.09,-7.31,-19.57,0,*4F
1495598868.14,52113,15.06,73764.8,1.11,-7.23,-19.37,0,*42
1495598869.36,52114,15.0,73762.3,1.11,-7.23,-19.31,0,*43
1495598870.61,52115,15.0,73762.3,1.09,-7.15,-18.93,0,*47
1495598871.84,52116,15.0,73766.0,1.09,-7.19,-19.71,0,*45
1495598873.06,52117,15.0,73760.8,1.11,-7.53,-20.15,0,*4B
1495598874.31,52118,15.0,73760.5,1.09,-7.77,-20.73,0,*4B
1495598875.56,52119,15.0,73762.8,1.09,-7.95,-21.13,0,*41
1495598876.81,52120,15.0,73764.3,1.09,-7.99,-21.39,0,*4F
1495598878.08,52121,15.0,73768.3,1.09,-8.11,-21.57,0,*49
1495598879.28,52122,15.0,73770.8,1.11,-8.17,-21.63,0,*42
1495598880.55,52123,15.0,73770.8,1.09,-8.11,-21.57,0,*4B
1495598881.8,52124,15.0,73768.0,1.07,-8.17,-21.57,0,*44
1495598883.02,52125,15.0,73770.3,1.09,-8.21,-21.43,0,*4B
1495598884.27,52126,15.0,73768.8,1.09,-8.11,-21.43,0,*4B
1495598885.52,52127,15.0,73770.3,1.09,-8.11,-21.43,0,*4A
1495598886.75,52128,15.0,73770.5,1.07,-8.17,-21.47,0,*49
1495598888.0,52129,15.0,73768.8,1.07,-8.17,-21.33,0,*4B
1495598889.23,52130,15.0,73768.5,1.05,-8.25,-21.27,0,*45
1495598890.45,52131,15.06,73772.8,1.09,-8.21,-21.13,0,*4B
1495598891.7,52132,15.0,73772.5,1.09,-8.21,-20.83,0,*40
1495598892.94,52133,15.0,73772.8,1.07,-8.25,-20.63,0,*45
1495598894.19,52134,15.0,73772.5,1.07,-8.25,-20.35,0,*41
1495598895.45,52135,15.0,73774.0,1.07,-8.25,-19.81,0,*45
1495598896.7,52136,15.0,73772.3,1.07,-8.29,-19.41,0,*46
1495598897.92,52137,15.0,73774.3,1.07,-8.17,-18.99,0,*4E
1495598899.15,52138,15.0,73774.5,1.07,-8.17,-18.41,0,*44
1495598900.38,52139,15.0,73772.5,1.07,-8.25,-18.07,0,*46
1495598901.61,52140,15.06,73774.5,1.07,-8.25,-17.73,0,*44
1495598902.83,52141,15.0,73772.3,1.07,-8.17,-17.31,0,*42
1495598904.11,52142,15.0,73772.8,1.07,-8.03,-16.69,0,*48
1495598905.36,52143,15.0,73774.8,1.07,-7.69,-16.03,0,*46
1495598906.61,52144,15.0,73774.0,1.07,-7.49,-15.57,0,*41
1495598907.85,52145,15.0,73772.8,1.07,-7.23,-15.25,0,*49
1495598909.13,52146,15.06,73778.5,1.07,-7.05,-14.83,0,*43
1495598910.41,52147,15.0,73774.3,1.07,-6.93,-14.79,0,*49
1495598911.64,52148,15.0,73776.8,1.09,-6.89,-14.61,0,*4A
1495598912.86,52149,15.0,73772.5,1.09,-6.85,-14.33,0,*40
1495598914.09,52150,15.06,73778.0,1.07,-6.81,-14.11,0,*42
1495598915.28,52151,15.0,73772.3,1.05,-6.89,-14.11,0,*49
1495598916.53,52152,15.06,73772.3,1.07,-7.01,-14.15,0,*4D
1495598917.78,52153,15.0,73770.0,1.07,-7.01,-14.11,0,*48